Wind_Speed
13 14 15 16 16 17 16 15 13 11 9 6 6 6 7 9 11 11 12 12 12 12 11 10 9 8 7 5 4 3 3 2 2 2 2 2 2 1 1 2 2 2 2
14 14 15 16 16 16 15 14 13 11 9 7 6 6 7 8 10 11 11 12 13 12 12 11 10 8 8 7 6 5 4 3 2 2 2 1 1 1 0 1 1 1 2
14 14 15 15 15 15 14 12 11 10 9 7 6 5 6 7 8 11 12 13 13 13 13 12 11 10 9 8 7 6 5 4 4 3 2 2 1 1 1 1 0 0 1
14 14 15 14 14 14 13 11 11 9 8 7 6 6 6 7 9 10 11 13 13 13 13 13 12 11 11 10 9 8 7 6 5 5 4 3 3 3 2 2 2 2 1
14 12 13 13 13 13 11 10 10 10 8 7 6 6 7 8 9 11 12 12 13 13 13 13 13 12 12 11 11 10 9 8 7 7 6 5 5 5 4 3 4 3 3
14 13 13 13 12 12 10 10 9 9 8 6 5 5 6 7 9 11 13 13 14 14 14 13 13 13 13 13 12 12 11 10 9 9 8 8 7 7 7 7 6 6 6
14 12 12 12 11 11 10 9 9 8 7 7 7 7 7 7 8 11 12 14 14 15 15 15 14 14 14 14 14 13 13 12 12 11 10 10 10 10 10 10 9 9 8
13 12 11 11 11 10 10 10 9 8 8 7 6 6 6 6 8 10 12 13 13 14 15 16 15 15 15 15 15 15 15 15 14 14 13 13 13 13 12 12 13 12 12
13 11 10 10 10 9 9 9 9 8 7 7 6 6 6 6 7 8 11 13 13 14 15 16 16 17 17 17 17 17 17 17 17 16 16 16 16 16 16 16 15 15 15
13 12 11 10 9 9 9 8 8 8 8 7 7 7 7 7 7 8 9 11 13 14 15 16 17 18 18 18 19 19 20 19 19 18 18 19 19 19 18 18 18 17 17
13 12 11 11 10 10 9 9 9 9 8 8 8 7 7 7 7 7 9 11 12 14 15 16 17 18 19 20 20 20 21 21 21 20 21 21 21 21 21 20 21 21 21
14 13 13 12 11 11 11 10 10 9 9 9 9 8 8 7 8 8 10 11 12 13 14 16 17 18 19 20 21 21 21 21 22 23 23 24 23 23 23 23 23 23 23
16 15 14 13 13 13 12 12 11 11 11 10 10 10 9 9 10 10 11 12 13 14 14 15 17 18 19 20 21 21 22 22 23 24 24 25 25 25 25 25 25 26 26
16 16 15 15 15 15 14 13 13 13 12 12 11 11 11 11 11 12 13 14 15 15 15 16 17 18 18 19 21 22 22 23 24 25 26 26 27 26 27 27 27 27 27
17 17 17 16 16 16 15 15 15 14 14 13 13 12 12 12 13 13 14 15 16 17 17 17 18 19 19 20 21 23 24 25 26 26 26 27 27 27 27 28 29 29 30
19 19 18 17 17 17 17 16 16 15 15 15 15 14 14 14 15 15 16 17 18 19 19 20 20 21 21 22 22 23 24 25 25 25 26 27 27 28 29 30 30 31 31
20 20 19 19 19 19 18 18 18 17 16 16 16 16 16 16 16 16 17 17 17 19 20 20 21 21 22 22 22 24 24 25 25 26 27 27 28 29 30 31 32 32 33
22 21 21 21 21 20 20 20 19 19 19 18 18 18 18 18 17 18 18 18 19 20 21 22 22 23 23 23 23 23 24 25 26 26 27 28 29 29 30 31 31 32 33
23 23 22 22 23 23 22 22 22 21 20 20 20 20 20 19 19 19 19 20 21 21 21 22 23 23 24 25 25 25 26 26 27 28 28 29 29 31 32 32 32 32 33
23 24 23 24 24 24 24 23 23 23 22 22 21 21 21 21 21 21 21 21 21 21 22 23 23 24 25 25 26 27 27 28 29 29 30 31 31 32 33 33 33 34 34
24 24 24 24 24 25 25 25 24 24 24 24 23 22 22 22 22 23 23 22 22 23 24 24 25 26 26 26 27 27 28 29 30 31 32 32 32 33 33 34 35 36 36
25 25 25 25 25 26 26 26 25 25 24 25 24 24 23 23 24 24 24 24 24 25 25 26 27 26 26 27 28 29 29 30 30 30 31 32 32 33 34 35 36 36 36
26 26 26 26 26 26 26 26 26 25 25 25 25 25 25 25 25 25 25 25 26 27 27 28 28 27 27 28 28 28 29 30 31 31 32 32 32 33 34 35 35 35 36
27 27 27 27 27 26 26 26 26 26 26 26 26 26 26 26 25 25 25 26 28 28 28 28 28 28 28 28 29 28 28 29 30 31 32 32 32 33 34 34 35 36 37
28 28 28 28 28 27 27 27 26 27 26 27 27 26 26 25 25 26 26 27 27 27 27 28 27 28 28 28 29 29 28 29 31 31 31 32 34 34 35 35 36 38 39
28 28 28 27 27 27 27 27 27 27 27 27 27 26 25 25 26 26 26 27 27 27 26 27 27 27 27 28 28 28 28 29 31 32 34 35 36 37 36 37 37 39 40
Wind_Direction
316 319 322 324 324 325 325 326 329 323 312 302 279 256 240 235 229 231 231 228 227 225 221 221 222 218 211 211 215 217 204 188 178 165 138 116 113 118 102 88 86 83 74
311 316 318 320 322 324 324 323 326 322 312 304 289 263 241 234 231 228 228 228 227 222 220 220 223 218 216 218 219 220 217 207 204 202 182 160 154 122 115 90 73 70 62
310 314 315 318 321 323 324 321 321 319 315 306 291 266 253 242 234 228 225 226 224 221 220 221 222 221 222 224 223 223 223 223 223 228 230 231 250 274 283 269 277 4 19
309 311 313 316 320 322 324 324 323 322 318 304 286 270 259 247 234 228 225 223 220 220 219 221 222 222 225 228 230 230 231 234 238 240 244 253 269 278 287 290 292 299 304
305 309 310 314 318 322 323 325 326 325 317 301 287 271 260 251 239 234 228 224 220 220 219 221 222 223 226 230 232 234 235 238 243 246 249 258 270 279 285 288 286 286 287
302 306 308 313 316 320 322 326 327 323 316 306 293 272 265 254 240 235 233 228 223 221 222 223 224 225 229 232 235 237 239 241 244 247 251 258 265 274 278 274 274 277 278
299 303 307 311 314 314 318 321 323 322 316 304 286 276 262 252 244 237 234 230 229 227 227 227 227 229 232 236 240 242 245 246 248 251 255 260 264 269 273 273 272 271 272
296 300 304 308 311 309 315 320 326 325 318 309 291 272 261 257 251 240 236 232 234 233 231 230 232 234 235 240 244 246 248 251 252 255 259 262 266 268 271 272 272 270 271
291 294 300 305 308 308 312 315 319 320 316 311 300 278 266 261 256 247 239 236 236 234 233 234 237 239 241 243 246 248 249 253 255 258 260 262 265 269 272 272 272 271 271
285 287 294 300 306 308 309 311 312 315 315 317 310 291 273 266 262 253 243 239 237 237 236 236 238 241 244 246 249 251 252 253 255 259 262 263 266 269 270 273 272 273 274
283 283 289 294 300 304 304 305 310 310 312 315 315 302 297 282 268 258 250 241 239 240 242 239 241 245 248 251 251 253 255 256 258 260 263 266 268 268 271 271 272 272 273
282 284 285 289 295 300 302 298 301 304 306 309 309 303 294 283 269 260 255 249 246 245 246 246 247 250 251 254 256 255 256 259 261 262 265 267 269 269 269 270 271 272 272
279 278 280 284 289 294 299 299 298 300 301 301 299 296 288 283 273 267 261 255 254 253 254 253 255 257 257 259 259 258 257 259 262 265 267 269 271 272 270 271 272 273 273
276 275 277 280 284 289 293 295 297 298 300 300 297 294 289 284 280 274 268 262 258 257 259 261 262 263 264 264 262 262 262 263 264 265 267 270 272 272 272 272 274 274 274
272 272 275 276 279 284 288 291 294 294 295 296 296 294 291 288 282 279 273 268 266 264 266 268 267 267 267 267 265 264 266 267 267 267 268 268 270 272 273 274 274 275 275
271 273 275 274 276 279 283 287 291 292 293 294 293 291 290 288 285 280 275 273 271 270 270 270 270 271 270 270 270 270 271 272 271 271 271 272 273 275 276 276 276 276 275
273 273 273 274 276 277 280 283 286 288 289 292 293 290 288 287 285 281 278 277 277 275 274 274 272 274 273 274 273 274 273 273 274 274 273 274 275 275 278 279 278 277 276
271 271 271 272 273 275 277 279 283 286 287 287 289 288 287 287 285 283 281 280 279 279 276 276 276 274 274 276 275 273 273 274 274 275 274 274 276 277 278 280 280 278 277
268 269 270 271 271 273 274 277 278 282 283 283 284 285 286 286 285 284 283 281 279 279 277 276 276 277 277 277 276 275 275 276 277 277 277 277 278 281 282 281 280 280 280
267 269 271 271 271 271 273 275 276 279 280 281 282 284 285 285 283 283 283 282 280 280 278 277 277 278 280 279 277 277 276 277 276 277 278 278 280 281 282 282 283 283 283
267 268 270 270 271 271 273 273 275 278 279 281 282 282 283 282 281 281 281 280 279 281 281 280 281 281 280 280 279 278 279 280 279 279 278 280 281 282 284 284 284 286 286
266 267 268 270 271 271 273 273 275 277 278 280 282 283 282 281 282 282 281 280 280 282 283 283 284 281 280 280 281 279 280 281 282 281 281 281 283 283 283 284 285 286 286
266 266 267 269 272 272 273 274 275 277 279 280 283 283 283 282 282 281 281 282 282 283 284 284 285 283 282 282 282 282 282 281 282 282 282 283 284 284 285 286 288 288 287
266 267 268 270 271 273 274 275 277 278 278 280 281 282 282 281 281 283 283 284 284 284 284 284 282 282 282 283 284 284 282 282 283 284 283 285 288 287 288 289 289 291 291
267 268 270 272 271 271 272 274 276 279 279 279 280 280 280 280 282 283 283 284 285 285 285 284 283 282 283 283 282 284 285 284 284 284 285 287 289 289 289 291 291 291 292
267 268 270 271 272 273 272 273 275 278 278 278 278 278 279 281 282 283 283 283 283 285 287 287 286 284 284 285 284 284 285 286 285 286 287 288 289 290 290 291 291 292 293
Height
5887 5886 5884 5882 5879 5877 5875 5873 5871 5869 5868 5868 5869 5870 5872 5873 5875 5877 5879 5881 5883 5885 5887 5889 5891 5892 5893 5894 5895 5896 5896 5897 5897 5897 5898 5898 5898 5898 5898 5899 5899 5899 5899
5885 5884 5882 5880 5878 5876 5874 5872 5870 5869 5868 5868 5868 5869 5870 5872 5874 5875 5877 5880 5882 5884 5886 5888 5890 5891 5893 5894 5895 5896 5896 5897 5897 5897 5898 5898 5898 5898 5898 5899 5899 5899 5899
5884 5882 5881 5879 5877 5875 5873 5871 5869 5868 5868 5867 5867 5867 5869 5870 5872 5874 5876 5878 5880 5882 5884 5887 5889 5890 5892 5893 5894 5895 5896 5896 5897 5897 5898 5898 5898 5898 5899 5898 5899 5899 5899
5882 5881 5879 5877 5876 5874 5872 5870 5869 5868 5866 5866 5866 5867 5868 5869 5871 5872 5874 5876 5878 5881 5883 5885 5887 5889 5891 5892 5893 5894 5895 5896 5896 5897 5897 5898 5898 5898 5898 5898 5898 5898 5898
5880 5879 5878 5876 5875 5873 5871 5870 5868 5867 5866 5865 5865 5865 5866 5867 5869 5870 5872 5874 5877 5879 5881 5883 5885 5887 5889 5891 5892 5893 5894 5895 5895 5896 5896 5896 5897 5897 5897 5897 5897 5898 5897
5878 5877 5876 5875 5873 5872 5870 5869 5868 5866 5865 5864 5864 5864 5865 5866 5867 5868 5870 5872 5875 5877 5879 5881 5883 5885 5887 5889 5890 5891 5892 5893 5894 5894 5895 5895 5895 5896 5896 5896 5896 5896 5896
5876 5876 5875 5873 5872 5871 5870 5868 5867 5865 5864 5863 5863 5863 5864 5864 5865 5866 5868 5870 5872 5875 5877 5879 5881 5883 5885 5887 5888 5889 5890 5891 5892 5893 5893 5893 5894 5894 5894 5894 5894 5894 5895
5874 5874 5873 5872 5871 5870 5869 5867 5866 5865 5863 5863 5862 5862 5862 5863 5863 5864 5866 5868 5870 5872 5874 5876 5879 5881 5883 5884 5886 5887 5888 5889 5890 5890 5891 5891 5891 5892 5892 5892 5892 5892 5892
5873 5872 5871 5871 5870 5869 5868 5867 5866 5864 5863 5862 5861 5861 5861 5861 5862 5863 5864 5866 5868 5870 5871 5874 5876 5878 5880 5881 5882 5884 5885 5886 5886 5887 5888 5888 5888 5889 5889 5889 5889 5889 5889
5871 5870 5870 5869 5869 5868 5867 5866 5865 5864 5863 5861 5860 5860 5860 5860 5860 5861 5862 5864 5866 5867 5869 5871 5873 5875 5876 5878 5879 5880 5881 5882 5883 5883 5884 5885 5885 5885 5885 5885 5885 5885 5885
5869 5868 5868 5868 5867 5867 5866 5865 5864 5863 5862 5861 5860 5859 5859 5859 5859 5860 5861 5862 5863 5865 5866 5868 5870 5871 5873 5874 5875 5876 5877 5878 5879 5879 5880 5880 5880 5880 5880 5880 5880 5880 5880
5866 5866 5866 5866 5866 5865 5864 5863 5862 5861 5860 5859 5859 5858 5858 5858 5858 5859 5859 5860 5861 5862 5864 5865 5866 5867 5869 5870 5871 5871 5872 5873 5874 5875 5875 5875 5875 5875 5875 5875 5875 5875 5875
5864 5864 5864 5864 5863 5863 5862 5861 5861 5860 5859 5858 5857 5857 5857 5857 5857 5857 5857 5858 5859 5860 5861 5862 5863 5864 5864 5865 5866 5867 5868 5868 5869 5869 5870 5870 5870 5869 5869 5869 5869 5869 5869
5861 5861 5861 5861 5861 5861 5860 5859 5859 5858 5857 5856 5856 5855 5855 5855 5854 5854 5855 5855 5856 5857 5858 5859 5859 5860 5860 5861 5861 5862 5862 5863 5863 5864 5864 5864 5864 5863 5863 5863 5863 5862 5862
5857 5858 5858 5858 5858 5858 5857 5857 5856 5855 5855 5854 5853 5853 5852 5852 5852 5852 5852 5852 5853 5853 5854 5855 5855 5855 5856 5856 5856 5856 5857 5857 5857 5857 5857 5857 5857 5857 5857 5856 5856 5855 5854
5854 5854 5855 5855 5855 5855 5854 5854 5853 5852 5852 5851 5850 5850 5849 5849 5849 5849 5849 5849 5849 5850 5850 5850 5850 5851 5851 5851 5851 5851 5851 5851 5851 5851 5851 5851 5851 5850 5850 5849 5848 5847 5846
5850 5850 5850 5851 5851 5851 5851 5850 5850 5849 5849 5848 5848 5847 5846 5845 5845 5845 5845 5845 5845 5846 5846 5846 5845 5846 5846 5845 5845 5845 5845 5845 5845 5844 5844 5844 5844 5843 5842 5841 5840 5839 5838
5845 5846 5846 5846 5847 5847 5847 5846 5846 5846 5845 5844 5844 5843 5842 5842 5841 5841 5841 5841 5841 5841 5841 5840 5840 5840 5840 5840 5839 5839 5839 5838 5838 5838 5837 5837 5836 5836 5835 5834 5832 5831 5830
5840 5841 5841 5841 5842 5842 5842 5842 5841 5841 5841 5840 5840 5839 5838 5838 5837 5837 5836 5836 5836 5835 5835 5835 5835 5834 5834 5834 5833 5833 5832 5832 5832 5831 5830 5830 5829 5828 5827 5826 5824 5823 5822
5835 5835 5836 5836 5836 5836 5837 5837 5836 5836 5836 5835 5835 5834 5833 5833 5833 5832 5832 5831 5831 5830 5829 5829 5829 5828 5828 5827 5827 5826 5826 5825 5825 5824 5823 5822 5821 5820 5819 5817 5815 5814 5812
5830 5830 5830 5831 5831 5831 5831 5831 5831 5831 5830 5830 5829 5829 5828 5827 5827 5827 5826 5826 5825 5825 5824 5823 5823 5822 5821 5821 5820 5819 5818 5818 5817 5816 5815 5814 5813 5812 5810 5808 5807 5805 5803
5824 5824 5825 5825 5825 5825 5825 5825 5825 5825 5824 5824 5823 5823 5822 5821 5821 5820 5820 5819 5819 5819 5818 5817 5816 5815 5814 5814 5813 5812 5811 5810 5809 5808 5807 5806 5804 5803 5801 5799 5797 5796 5793
5817 5818 5819 5819 5819 5819 5819 5819 5819 5819 5818 5818 5818 5817 5816 5816 5815 5814 5814 5813 5813 5812 5812 5810 5809 5808 5807 5806 5805 5804 5803 5802 5801 5800 5798 5797 5796 5794 5792 5790 5788 5786 5784
5811 5812 5812 5812 5813 5813 5812 5813 5813 5812 5812 5812 5811 5811 5810 5809 5809 5808 5808 5807 5806 5805 5804 5802 5801 5800 5799 5798 5798 5796 5795 5794 5793 5792 5790 5789 5787 5785 5783 5781 5779 5776 5774
5805 5805 5806 5806 5806 5806 5806 5806 5806 5806 5805 5805 5805 5804 5803 5803 5802 5802 5801 5800 5799 5797 5796 5795 5793 5792 5791 5790 5789 5789 5787 5786 5785 5783 5782 5780 5778 5776 5774 5771 5769 5766 5763
5798 5798 5799 5799 5799 5799 5799 5799 5799 5799 5799 5798 5798 5797 5797 5796 5796 5795 5794 5792 5792 5790 5789 5787 5786 5785 5783 5782 5781 5780 5779 5778 5776 5775 5773 5771 5769 5766 5764 5761 5759 5756 5752